User: anonymous   Login
Location: Cudham
(51.3000°N, 0.0667°E)
Time: 08:09:23
(UTC+00:00)
Language:

Ariane Rocket - Orbit

View from above orbital plane
View from above orbital plane
View from above satellite
View from above satellite

Ground track
Ground track

The orbit data is extracted from the following two-line orbital elements,

1 23561U 95021B   25198.20883271  .00000201  00000-0  78359-4 0  9999
2 23561  98.4822 267.4537 0007853 122.8907 301.6023 14.39550437585585
Epoch (UTC): 17 July 2025 05:00:43
Eccentricity: 0.0007853
inclination: 98.4822°
perigee height: 754 km
apogee height: 765 km
right ascension of ascending node: 267.4537°
argument of perigee: 122.8907°
revolutions per day: 14.39550437
mean anomaly at epoch: 301.6023°
orbit number at epoch: 58558

The dashed part of the orbit path shows where the satellite is in the earth's shadow,  

DLR